Year,Month,Day,Hour,Minute,Value (Times are PST for temperature in C)
2012,09,13,00,00,10.60
2012,09,13,00,01,10.60
2012,09,13,00,02,10.60
2012,09,13,00,03,10.60
2012,09,13,00,04,10.60
2012,09,13,00,05,10.60
2012,09,13,00,06,10.60
2012,09,13,00,07,10.60
2012,09,13,00,08,10.50
2012,09,13,00,09,10.40
2012,09,13,00,10,10.40
2012,09,13,00,11,10.40
2012,09,13,00,12,10.40
2012,09,13,00,13,10.30
2012,09,13,00,14,10.30
2012,09,13,00,15,10.30
2012,09,13,00,16,10.20
2012,09,13,00,17,10.20
2012,09,13,00,18,10.20
2012,09,13,00,19,10.10
2012,09,13,00,20,10.10
2012,09,13,00,21,10.10
2012,09,13,00,22,10.10
2012,09,13,00,23,10.00
2012,09,13,00,24,9.90
2012,09,13,00,25,9.90
2012,09,13,00,26,9.90
2012,09,13,00,27,9.90
2012,09,13,00,28,9.90
2012,09,13,00,29,9.90
2012,09,13,00,30,9.80
2012,09,13,00,31,9.80
2012,09,13,00,32,9.80
2012,09,13,00,33,9.80
2012,09,13,00,34,9.80
2012,09,13,00,35,9.80
2012,09,13,00,36,9.80
2012,09,13,00,37,9.80
2012,09,13,00,38,9.80
2012,09,13,00,39,9.80
2012,09,13,00,40,9.70
2012,09,13,00,41,9.70
2012,09,13,00,42,9.70
2012,09,13,00,43,9.70
2012,09,13,00,44,9.70
2012,09,13,00,45,9.70
2012,09,13,00,46,9.70
2012,09,13,00,47,9.70
2012,09,13,00,48,9.70
2012,09,13,00,49,9.60
2012,09,13,00,50,9.60
2012,09,13,00,51,9.60
2012,09,13,00,52,9.60
2012,09,13,00,53,9.50
2012,09,13,00,54,9.50
2012,09,13,00,55,9.50
2012,09,13,00,56,9.50
2012,09,13,00,57,9.50
2012,09,13,00,58,9.40
2012,09,13,00,59,9.40
2012,09,13,01,00,9.40
2012,09,13,01,01,9.40
2012,09,13,01,02,9.30
2012,09,13,01,03,9.30
2012,09,13,01,04,9.30
2012,09,13,01,05,9.30
2012,09,13,01,06,9.30
2012,09,13,01,07,9.20
2012,09,13,01,08,9.20
2012,09,13,01,09,9.20
2012,09,13,01,10,9.20
2012,09,13,01,11,9.20
2012,09,13,01,12,9.20
2012,09,13,01,13,9.20
2012,09,13,01,14,9.20
2012,09,13,01,15,9.20
2012,09,13,01,16,9.20
2012,09,13,01,17,9.20
2012,09,13,01,18,9.20
2012,09,13,01,19,9.20
2012,09,13,01,20,9.20
2012,09,13,01,21,9.20
2012,09,13,01,22,9.20
2012,09,13,01,23,9.20
2012,09,13,01,24,9.20
2012,09,13,01,25,9.20
2012,09,13,01,26,9.20
2012,09,13,01,27,9.20
2012,09,13,01,28,9.20
2012,09,13,01,29,9.20
2012,09,13,01,30,9.20
2012,09,13,01,31,9.20
2012,09,13,01,32,9.20
2012,09,13,01,33,9.20
2012,09,13,01,34,9.20
2012,09,13,01,35,9.20
2012,09,13,01,36,9.20
2012,09,13,01,37,9.20
2012,09,13,01,38,9.20
2012,09,13,01,39,9.20
2012,09,13,01,40,9.20
2012,09,13,01,41,9.20
2012,09,13,01,42,9.20
2012,09,13,01,43,9.20
2012,09,13,01,44,9.20
2012,09,13,01,45,9.20
2012,09,13,01,46,9.20
2012,09,13,01,47,9.20
2012,09,13,01,48,9.20
2012,09,13,01,49,9.20
2012,09,13,01,50,9.20
2012,09,13,01,51,9.10
2012,09,13,01,52,9.10
2012,09,13,01,53,9.10
2012,09,13,01,54,9.00
2012,09,13,01,55,9.00
2012,09,13,01,56,9.00
2012,09,13,01,57,8.90
2012,09,13,01,58,8.90
2012,09,13,01,59,8.90
2012,09,13,02,00,8.80
2012,09,13,02,01,8.80
2012,09,13,02,02,8.80
2012,09,13,02,03,8.70
2012,09,13,02,04,8.70
2012,09,13,02,05,8.70
2012,09,13,02,06,8.70
2012,09,13,02,07,8.70
2012,09,13,02,08,8.70
2012,09,13,02,09,8.70
2012,09,13,02,10,8.70
2012,09,13,02,11,8.70
2012,09,13,02,12,8.70
2012,09,13,02,13,8.70
2012,09,13,02,14,8.70
2012,09,13,02,15,8.70
2012,09,13,02,16,8.70
2012,09,13,02,17,8.70
2012,09,13,02,18,8.70
2012,09,13,02,19,8.60
2012,09,13,02,20,8.60
2012,09,13,02,21,8.60
2012,09,13,02,22,8.60
2012,09,13,02,23,8.60
2012,09,13,02,24,8.50
2012,09,13,02,25,8.50
2012,09,13,02,26,8.50
2012,09,13,02,27,8.50
2012,09,13,02,28,8.50
2012,09,13,02,29,8.50
2012,09,13,02,30,8.40
2012,09,13,02,31,8.40
2012,09,13,02,32,8.40
2012,09,13,02,33,8.40
2012,09,13,02,34,8.40
2012,09,13,02,35,8.40
2012,09,13,02,36,8.40
2012,09,13,02,37,8.30
2012,09,13,02,38,8.30
2012,09,13,02,39,8.30
2012,09,13,02,40,8.30
2012,09,13,02,41,8.30
2012,09,13,02,42,8.30
2012,09,13,02,43,8.30
2012,09,13,02,44,8.30
2012,09,13,02,45,8.30
2012,09,13,02,46,8.30
2012,09,13,02,47,8.30
2012,09,13,02,48,8.30
2012,09,13,02,49,8.30
2012,09,13,02,50,8.30
2012,09,13,02,51,8.30
2012,09,13,02,52,8.30
2012,09,13,02,53,8.30
2012,09,13,02,54,8.30
2012,09,13,02,55,8.30
2012,09,13,02,56,8.30
2012,09,13,02,57,8.20
2012,09,13,02,58,8.20
2012,09,13,02,59,8.20
2012,09,13,03,00,8.20
2012,09,13,03,01,8.20
2012,09,13,03,02,8.20
2012,09,13,03,03,8.20
2012,09,13,03,04,8.20
2012,09,13,03,05,8.20
2012,09,13,03,06,8.20
2012,09,13,03,07,8.20
2012,09,13,03,08,8.20
2012,09,13,03,09,8.20
2012,09,13,03,10,8.20
2012,09,13,03,11,8.30
2012,09,13,03,12,8.30
2012,09,13,03,13,8.30
2012,09,13,03,14,8.30
2012,09,13,03,15,8.30
2012,09,13,03,16,8.30
2012,09,13,03,17,8.30
2012,09,13,03,18,8.30
2012,09,13,03,19,8.20
2012,09,13,03,20,8.20
2012,09,13,03,21,8.20
2012,09,13,03,22,8.20
2012,09,13,03,23,8.20
2012,09,13,03,24,8.20
2012,09,13,03,25,8.20
2012,09,13,03,26,8.10
2012,09,13,03,27,8.10
2012,09,13,03,28,8.10
2012,09,13,03,29,8.10
2012,09,13,03,30,8.00
2012,09,13,03,31,8.00
2012,09,13,03,32,8.00
2012,09,13,03,33,8.00
2012,09,13,03,34,8.00
2012,09,13,03,35,8.00
2012,09,13,03,36,7.90
2012,09,13,03,37,7.90
2012,09,13,03,38,7.90
2012,09,13,03,39,7.90
2012,09,13,03,40,7.90
2012,09,13,03,41,7.90
2012,09,13,03,42,7.90
2012,09,13,03,43,7.90
2012,09,13,03,44,7.90
2012,09,13,03,45,7.90
2012,09,13,03,46,7.90
2012,09,13,03,47,7.90
2012,09,13,03,48,7.90
2012,09,13,03,49,7.90
2012,09,13,03,50,7.90
2012,09,13,03,51,7.80
2012,09,13,03,52,7.80
2012,09,13,03,53,7.80
2012,09,13,03,54,7.80
2012,09,13,03,55,7.80
2012,09,13,03,56,7.80
2012,09,13,03,57,7.80
2012,09,13,03,58,7.80
2012,09,13,03,59,7.80
2012,09,13,04,00,7.80
2012,09,13,04,01,7.80
2012,09,13,04,02,7.80
2012,09,13,04,03,7.80
2012,09,13,04,04,7.80
2012,09,13,04,05,7.80
2012,09,13,04,06,7.80
2012,09,13,04,07,7.80
2012,09,13,04,08,7.90
2012,09,13,04,09,7.90
2012,09,13,04,10,7.90
2012,09,13,04,11,7.90
2012,09,13,04,12,7.90
2012,09,13,04,13,7.90
2012,09,13,04,14,7.90
2012,09,13,04,15,7.90
2012,09,13,04,16,7.90
2012,09,13,04,17,7.90
2012,09,13,04,18,7.90
2012,09,13,04,19,7.90
2012,09,13,04,20,7.90
2012,09,13,04,21,7.90
2012,09,13,04,22,7.90
2012,09,13,04,23,7.90
2012,09,13,04,24,7.90
2012,09,13,04,25,7.90
2012,09,13,04,26,7.90
2012,09,13,04,27,7.90
2012,09,13,04,28,7.90
2012,09,13,04,29,7.90
2012,09,13,04,30,7.90
2012,09,13,04,31,7.90
2012,09,13,04,32,7.90
2012,09,13,04,33,7.90
2012,09,13,04,34,7.90
2012,09,13,04,35,7.90
2012,09,13,04,36,7.90
2012,09,13,04,37,7.90
2012,09,13,04,38,7.90
2012,09,13,04,39,7.90
2012,09,13,04,40,7.90
2012,09,13,04,41,7.90
2012,09,13,04,42,7.90
2012,09,13,04,43,7.90
2012,09,13,04,44,7.90
2012,09,13,04,45,7.90
2012,09,13,04,46,7.90
2012,09,13,04,47,8.00
2012,09,13,04,48,8.00
2012,09,13,04,49,8.00
2012,09,13,04,50,8.00
2012,09,13,04,51,8.00
2012,09,13,04,52,8.00
2012,09,13,04,53,8.00
2012,09,13,04,54,8.00
2012,09,13,04,55,8.00
2012,09,13,04,56,8.00
2012,09,13,04,57,8.10
2012,09,13,04,58,8.10
2012,09,13,04,59,8.10
2012,09,13,05,00,8.10
2012,09,13,05,01,8.10
2012,09,13,05,02,8.10
2012,09,13,05,03,8.10
2012,09,13,05,04,8.10
2012,09,13,05,05,8.10
2012,09,13,05,06,8.10
2012,09,13,05,07,8.10
2012,09,13,05,08,8.10
2012,09,13,05,09,8.10
2012,09,13,05,10,8.10
2012,09,13,05,11,8.10
2012,09,13,05,12,8.10
2012,09,13,05,13,8.00
2012,09,13,05,14,8.00
2012,09,13,05,15,8.00
2012,09,13,05,16,8.00
2012,09,13,05,17,8.00
2012,09,13,05,18,7.90
2012,09,13,05,19,7.90
2012,09,13,05,20,7.90
2012,09,13,05,21,7.90
2012,09,13,05,22,7.90
2012,09,13,05,23,7.90
2012,09,13,05,24,7.80
2012,09,13,05,25,7.80
2012,09,13,05,26,7.80
2012,09,13,05,27,7.80
2012,09,13,05,28,7.80
2012,09,13,05,29,7.80
2012,09,13,05,30,7.80
2012,09,13,05,31,7.80
2012,09,13,05,32,7.80
2012,09,13,05,33,7.80
2012,09,13,05,34,7.90
2012,09,13,05,35,7.90
2012,09,13,05,36,8.00
2012,09,13,05,37,8.00
2012,09,13,05,38,8.10
2012,09,13,05,39,8.10
2012,09,13,05,40,8.10
2012,09,13,05,41,8.20
2012,09,13,05,42,8.20
2012,09,13,05,43,8.20
2012,09,13,05,44,8.30
2012,09,13,05,45,8.40
2012,09,13,05,46,8.50
2012,09,13,05,47,8.70
2012,09,13,05,48,8.90
2012,09,13,05,49,9.00
2012,09,13,05,50,9.10
2012,09,13,05,51,9.40
2012,09,13,05,52,9.50
2012,09,13,05,53,9.70
2012,09,13,05,54,9.90
2012,09,13,05,55,10.10
2012,09,13,05,56,10.40
2012,09,13,05,57,10.60
2012,09,13,05,58,10.80
2012,09,13,05,59,11.00
2012,09,13,06,00,11.10
2012,09,13,06,01,11.20
2012,09,13,06,02,11.40
2012,09,13,06,03,11.40
2012,09,13,06,04,11.50
2012,09,13,06,05,11.60
2012,09,13,06,06,11.60
2012,09,13,06,07,11.60
2012,09,13,06,08,11.60
2012,09,13,06,09,11.60
2012,09,13,06,10,11.60
2012,09,13,06,11,11.60
2012,09,13,06,12,11.60
2012,09,13,06,13,11.60
2012,09,13,06,14,11.60
2012,09,13,06,15,11.60
2012,09,13,06,16,11.60
2012,09,13,06,17,11.60
2012,09,13,06,18,11.60
2012,09,13,06,19,11.60
2012,09,13,06,20,11.60
2012,09,13,06,21,11.60
2012,09,13,06,22,11.60
2012,09,13,06,23,11.60
2012,09,13,06,24,11.60
2012,09,13,06,25,11.50
2012,09,13,06,26,11.40
2012,09,13,06,27,11.40
2012,09,13,06,28,11.40
2012,09,13,06,29,11.40
2012,09,13,06,30,11.40
2012,09,13,06,31,11.40
2012,09,13,06,32,11.40
2012,09,13,06,33,11.40
2012,09,13,06,34,11.30
2012,09,13,06,35,11.30
2012,09,13,06,36,11.30
2012,09,13,06,37,11.30
2012,09,13,06,38,11.30
2012,09,13,06,39,11.30
2012,09,13,06,40,11.30
2012,09,13,06,41,11.30
2012,09,13,06,42,11.30
2012,09,13,06,43,11.30
2012,09,13,06,44,11.30
2012,09,13,06,45,11.30
2012,09,13,06,46,11.30
2012,09,13,06,47,11.30
2012,09,13,06,48,11.30
2012,09,13,06,49,11.30
2012,09,13,06,50,11.30
2012,09,13,06,51,11.30
2012,09,13,06,52,11.30
2012,09,13,06,53,11.30
2012,09,13,06,54,11.30
2012,09,13,06,55,11.30
2012,09,13,06,56,11.20
2012,09,13,06,57,11.20
2012,09,13,06,58,11.20
2012,09,13,06,59,11.10
2012,09,13,07,00,11.10
2012,09,13,07,01,11.10
2012,09,13,07,02,11.10
2012,09,13,07,03,11.10
2012,09,13,07,04,11.10
2012,09,13,07,05,11.10
2012,09,13,07,06,11.10
2012,09,13,07,07,11.00
2012,09,13,07,08,10.90
2012,09,13,07,09,10.90
2012,09,13,07,10,10.80
2012,09,13,07,11,10.70
2012,09,13,07,12,10.60
2012,09,13,07,13,10.50
2012,09,13,07,14,10.40
2012,09,13,07,15,10.30
2012,09,13,07,16,10.30
2012,09,13,07,17,10.20
2012,09,13,07,18,10.20
2012,09,13,07,19,10.20
2012,09,13,07,20,10.20
2012,09,13,07,21,10.20
2012,09,13,07,22,10.30
2012,09,13,07,23,10.40
2012,09,13,07,24,10.40
2012,09,13,07,25,10.40
2012,09,13,07,26,10.40
2012,09,13,07,27,10.50
2012,09,13,07,28,10.60
2012,09,13,07,29,10.60
2012,09,13,07,30,10.60
2012,09,13,07,31,10.70
2012,09,13,07,32,10.70
2012,09,13,07,33,10.80
2012,09,13,07,34,10.90
2012,09,13,07,35,10.90
2012,09,13,07,36,11.00
2012,09,13,07,37,11.10
2012,09,13,07,38,11.20
2012,09,13,07,39,11.20
2012,09,13,07,40,11.30
2012,09,13,07,41,11.30
2012,09,13,07,42,11.40
2012,09,13,07,43,11.40
2012,09,13,07,44,11.40
2012,09,13,07,45,11.40
2012,09,13,07,46,11.40
2012,09,13,07,47,11.40
2012,09,13,07,48,11.40
2012,09,13,07,49,11.40
2012,09,13,07,50,11.40
2012,09,13,07,51,11.40
2012,09,13,07,52,11.60
2012,09,13,07,53,11.60
2012,09,13,07,54,11.70
2012,09,13,07,55,11.70
2012,09,13,07,56,11.80
2012,09,13,07,57,11.80
2012,09,13,07,58,11.90
2012,09,13,07,59,12.00
2012,09,13,08,00,12.00
2012,09,13,08,01,12.10
2012,09,13,08,02,12.20
2012,09,13,08,03,12.30
2012,09,13,08,04,12.30
2012,09,13,08,05,12.40
2012,09,13,08,06,12.50
2012,09,13,08,07,12.50
2012,09,13,08,08,12.60
2012,09,13,08,09,12.70
2012,09,13,08,10,12.80
2012,09,13,08,11,12.90
2012,09,13,08,12,13.00
2012,09,13,08,13,13.00
2012,09,13,08,14,13.10
2012,09,13,08,15,13.10
2012,09,13,08,16,13.20
2012,09,13,08,17,13.30
2012,09,13,08,18,13.40
2012,09,13,08,19,13.50
2012,09,13,08,20,13.70
2012,09,13,08,21,13.80
2012,09,13,08,22,13.90
2012,09,13,08,23,14.00
2012,09,13,08,24,14.10
2012,09,13,08,25,14.20
2012,09,13,08,26,14.30
2012,09,13,08,27,14.40
2012,09,13,08,28,14.50
2012,09,13,08,29,14.60
2012,09,13,08,30,14.70
2012,09,13,08,31,14.80
2012,09,13,08,32,15.00
2012,09,13,08,33,15.00
2012,09,13,08,34,15.10
2012,09,13,08,35,15.20
2012,09,13,08,36,15.30
2012,09,13,08,37,15.50
2012,09,13,08,38,15.50
2012,09,13,08,39,15.60
2012,09,13,08,40,15.70
2012,09,13,08,41,15.80
2012,09,13,08,42,15.80
2012,09,13,08,43,15.80
2012,09,13,08,44,15.90
2012,09,13,08,45,15.90
2012,09,13,08,46,16.00
2012,09,13,08,47,16.10
2012,09,13,08,48,16.10
2012,09,13,08,49,16.10
2012,09,13,08,50,16.20
2012,09,13,08,51,16.30
2012,09,13,08,52,16.30
2012,09,13,08,53,16.40
2012,09,13,08,54,16.50
2012,09,13,08,55,16.60
2012,09,13,08,56,16.70
2012,09,13,08,57,16.70
2012,09,13,08,58,16.80
2012,09,13,08,59,16.90
2012,09,13,09,00,16.90
2012,09,13,09,01,17.00
2012,09,13,09,02,17.10
2012,09,13,09,03,17.20
2012,09,13,09,04,17.20
2012,09,13,09,05,17.20
2012,09,13,09,06,17.30
2012,09,13,09,07,17.30
2012,09,13,09,08,17.30
2012,09,13,09,09,17.30
2012,09,13,09,10,17.40
2012,09,13,09,11,17.40
2012,09,13,09,12,17.50
2012,09,13,09,13,17.60
2012,09,13,09,14,17.70
2012,09,13,09,15,17.70
2012,09,13,09,16,17.80
2012,09,13,09,17,17.90
2012,09,13,09,18,17.90
2012,09,13,09,19,18.00
2012,09,13,09,20,18.10
2012,09,13,09,21,18.10
2012,09,13,09,22,18.20
2012,09,13,09,23,18.30
2012,09,13,09,24,18.40
2012,09,13,09,25,18.50
2012,09,13,09,26,18.60
2012,09,13,09,27,18.60
2012,09,13,09,28,18.70
2012,09,13,09,29,18.70
2012,09,13,09,30,18.70
2012,09,13,09,31,18.70
2012,09,13,09,32,18.80
2012,09,13,09,33,18.90
2012,09,13,09,34,18.90
2012,09,13,09,35,18.90
2012,09,13,09,36,18.90
2012,09,13,09,37,18.90
2012,09,13,09,38,18.90
2012,09,13,09,39,19.00
2012,09,13,09,40,19.10
2012,09,13,09,41,19.10
2012,09,13,09,42,19.10
2012,09,13,09,43,19.10
2012,09,13,09,44,19.10
2012,09,13,09,45,19.10
2012,09,13,09,46,19.10
2012,09,13,09,47,19.10
2012,09,13,09,48,19.20
2012,09,13,09,49,19.20
2012,09,13,09,50,19.20
2012,09,13,09,51,19.30
2012,09,13,09,52,19.30
2012,09,13,09,53,19.20
2012,09,13,09,54,19.20
2012,09,13,09,55,19.20
2012,09,13,09,56,19.30
2012,09,13,09,57,19.30
2012,09,13,09,58,19.40
2012,09,13,09,59,19.40
2012,09,13,10,00,19.40
2012,09,13,10,01,19.50
2012,09,13,10,02,19.50
2012,09,13,10,03,19.40
2012,09,13,10,04,19.40
2012,09,13,10,05,19.40
2012,09,13,10,06,19.40
2012,09,13,10,07,19.40
2012,09,13,10,08,19.50
2012,09,13,10,09,19.50
2012,09,13,10,10,19.50
2012,09,13,10,11,19.50
2012,09,13,10,12,19.50
2012,09,13,10,13,19.40
2012,09,13,10,14,19.40
2012,09,13,10,15,19.40
2012,09,13,10,16,19.50
2012,09,13,10,17,19.50
2012,09,13,10,18,19.50
2012,09,13,10,19,19.60
2012,09,13,10,20,19.60
2012,09,13,10,21,19.70
2012,09,13,10,22,19.80
2012,09,13,10,23,19.90
2012,09,13,10,24,19.90
2012,09,13,10,25,20.00
2012,09,13,10,26,20.10
2012,09,13,10,27,20.10
2012,09,13,10,28,20.00
2012,09,13,10,29,20.10
2012,09,13,10,30,20.10
2012,09,13,10,31,20.10
2012,09,13,10,32,20.10
2012,09,13,10,33,20.20
2012,09,13,10,34,20.10
2012,09,13,10,35,20.10
2012,09,13,10,36,20.10
2012,09,13,10,37,20.10
2012,09,13,10,38,20.10
2012,09,13,10,39,20.10
2012,09,13,10,40,20.20
2012,09,13,10,41,20.20
2012,09,13,10,42,20.20
2012,09,13,10,43,20.20
2012,09,13,10,44,20.20
2012,09,13,10,45,20.20
2012,09,13,10,46,20.20
2012,09,13,10,47,20.10
2012,09,13,10,48,20.00
2012,09,13,10,49,19.90
2012,09,13,10,50,19.90
2012,09,13,10,51,19.90
2012,09,13,10,52,20.00
2012,09,13,10,53,20.10
2012,09,13,10,54,20.10
2012,09,13,10,55,20.10
2012,09,13,10,56,20.10
2012,09,13,10,57,20.10
2012,09,13,10,58,20.10
2012,09,13,10,59,20.10
2012,09,13,11,00,20.10
2012,09,13,11,01,20.10
2012,09,13,11,02,20.10
2012,09,13,11,03,20.10
2012,09,13,11,04,20.20
2012,09,13,11,05,20.20
2012,09,13,11,06,20.20
2012,09,13,11,07,20.20
2012,09,13,11,08,20.20
2012,09,13,11,09,20.20
2012,09,13,11,10,20.30
2012,09,13,11,11,20.50
2012,09,13,11,12,20.50
2012,09,13,11,13,20.60
2012,09,13,11,14,20.70
2012,09,13,11,15,20.70
2012,09,13,11,16,20.80
2012,09,13,11,17,20.80
2012,09,13,11,18,20.90
2012,09,13,11,19,20.90
2012,09,13,11,20,20.90
2012,09,13,11,21,21.00
2012,09,13,11,22,21.10
2012,09,13,11,23,21.20
2012,09,13,11,24,21.20
2012,09,13,11,25,21.30
2012,09,13,11,26,21.30
2012,09,13,11,27,21.30
2012,09,13,11,28,21.40
2012,09,13,11,29,21.40
2012,09,13,11,30,21.40
2012,09,13,11,31,21.40
2012,09,13,11,32,21.40
2012,09,13,11,33,21.40
2012,09,13,11,34,21.40
2012,09,13,11,35,21.40
2012,09,13,11,36,21.40
2012,09,13,11,37,21.40
2012,09,13,11,38,21.30
2012,09,13,11,39,21.30
2012,09,13,11,40,21.30
2012,09,13,11,41,21.30
2012,09,13,11,42,21.30
2012,09,13,11,43,21.20
2012,09,13,11,44,21.30
2012,09,13,11,45,21.30
2012,09,13,11,46,21.30
2012,09,13,11,47,21.30
2012,09,13,11,48,21.30
2012,09,13,11,49,21.30
2012,09,13,11,50,21.30
2012,09,13,11,51,21.40
2012,09,13,11,52,21.50
2012,09,13,11,53,21.60
2012,09,13,11,54,21.50
2012,09,13,11,55,21.50
2012,09,13,11,56,21.50
2012,09,13,11,57,21.40
2012,09,13,11,58,21.50
2012,09,13,11,59,21.60
2012,09,13,12,00,21.60
2012,09,13,12,01,21.60
2012,09,13,12,02,21.60
2012,09,13,12,03,21.60
2012,09,13,12,04,21.50
2012,09,13,12,05,21.40
2012,09,13,12,06,21.50
2012,09,13,12,07,21.60
2012,09,13,12,08,21.60
2012,09,13,12,09,21.60
2012,09,13,12,10,21.60
2012,09,13,12,11,21.70
2012,09,13,12,12,21.80
2012,09,13,12,13,21.90
2012,09,13,12,14,22.00
2012,09,13,12,15,22.00
2012,09,13,12,16,22.00
2012,09,13,12,17,22.00
2012,09,13,12,18,22.00
2012,09,13,12,19,22.10
2012,09,13,12,20,22.10
2012,09,13,12,21,22.10
2012,09,13,12,22,22.00
2012,09,13,12,23,22.00
2012,09,13,12,24,22.00
2012,09,13,12,25,22.00
2012,09,13,12,26,22.00
2012,09,13,12,27,22.10
2012,09,13,12,28,22.10
2012,09,13,12,29,22.20
2012,09,13,12,30,22.30
2012,09,13,12,31,22.40
2012,09,13,12,32,22.40
2012,09,13,12,33,22.50
2012,09,13,12,34,22.50
2012,09,13,12,35,22.40
2012,09,13,12,36,22.40
2012,09,13,12,37,22.40
2012,09,13,12,38,22.40
2012,09,13,12,39,22.40
2012,09,13,12,40,22.40
2012,09,13,12,41,22.40
2012,09,13,12,42,22.40
2012,09,13,12,43,22.50
2012,09,13,12,44,22.50
2012,09,13,12,45,22.50
2012,09,13,12,46,22.40
2012,09,13,12,47,22.40
2012,09,13,12,48,22.30
2012,09,13,12,49,22.30
2012,09,13,12,50,22.30
2012,09,13,12,51,22.30
2012,09,13,12,52,22.30
2012,09,13,12,53,22.30
2012,09,13,12,54,22.40
2012,09,13,12,55,22.40
2012,09,13,12,56,22.40
2012,09,13,12,57,22.40
2012,09,13,12,58,22.40
2012,09,13,12,59,22.50
2012,09,13,13,00,22.60
2012,09,13,13,01,22.60
2012,09,13,13,02,22.60
2012,09,13,13,03,22.60
2012,09,13,13,04,22.70
2012,09,13,13,05,22.70
2012,09,13,13,06,22.80
2012,09,13,13,07,22.80
2012,09,13,13,08,22.80
2012,09,13,13,09,22.80
2012,09,13,13,10,22.80
2012,09,13,13,11,22.80
2012,09,13,13,12,22.90
2012,09,13,13,13,22.90
2012,09,13,13,14,22.90
2012,09,13,13,15,22.90
2012,09,13,13,16,22.90
2012,09,13,13,17,22.90
2012,09,13,13,18,22.90
2012,09,13,13,19,22.80
2012,09,13,13,20,22.70
2012,09,13,13,21,22.70
2012,09,13,13,22,22.60
2012,09,13,13,23,22.70
2012,09,13,13,24,22.60
2012,09,13,13,25,22.70
2012,09,13,13,26,22.70
2012,09,13,13,27,22.80
2012,09,13,13,28,22.90
2012,09,13,13,29,22.90
2012,09,13,13,30,22.90
2012,09,13,13,31,22.90
2012,09,13,13,32,22.90
2012,09,13,13,33,22.90
2012,09,13,13,34,22.90
2012,09,13,13,35,23.00
2012,09,13,13,36,23.00
2012,09,13,13,37,22.90
2012,09,13,13,38,22.90
2012,09,13,13,39,22.90
2012,09,13,13,40,23.00
2012,09,13,13,41,23.10
2012,09,13,13,42,23.10
2012,09,13,13,43,23.10
2012,09,13,13,44,23.10
2012,09,13,13,45,23.10
2012,09,13,13,46,23.20
2012,09,13,13,47,23.20
2012,09,13,13,48,23.20
2012,09,13,13,49,23.30
2012,09,13,13,50,23.30
2012,09,13,13,51,23.30
2012,09,13,13,52,23.30
2012,09,13,13,53,23.30
2012,09,13,13,54,23.50
2012,09,13,13,55,23.60
2012,09,13,13,56,23.60
2012,09,13,13,57,23.60
2012,09,13,13,58,23.70
2012,09,13,13,59,23.70
2012,09,13,14,00,23.70
2012,09,13,14,01,23.70
2012,09,13,14,02,23.80
2012,09,13,14,03,23.80
2012,09,13,14,04,23.90
2012,09,13,14,05,23.90
2012,09,13,14,06,23.90
2012,09,13,14,07,23.80
2012,09,13,14,08,23.90
2012,09,13,14,09,23.90
2012,09,13,14,10,23.80
2012,09,13,14,11,23.80
2012,09,13,14,12,23.80
2012,09,13,14,13,23.70
2012,09,13,14,14,23.70
2012,09,13,14,15,23.60
2012,09,13,14,16,23.60
2012,09,13,14,17,23.60
2012,09,13,14,18,23.70
2012,09,13,14,19,23.70
2012,09,13,14,20,23.80
2012,09,13,14,21,23.90
2012,09,13,14,22,23.90
2012,09,13,14,23,23.90
2012,09,13,14,24,23.90
2012,09,13,14,25,23.90
2012,09,13,14,26,24.00
2012,09,13,14,27,24.10
2012,09,13,14,28,24.10
2012,09,13,14,29,24.10
2012,09,13,14,30,24.10
2012,09,13,14,31,24.20
2012,09,13,14,32,24.20
2012,09,13,14,33,24.20
2012,09,13,14,34,24.20
2012,09,13,14,35,24.20
2012,09,13,14,36,24.10
2012,09,13,14,37,24.10
2012,09,13,14,38,24.10
2012,09,13,14,39,24.20
2012,09,13,14,40,24.20
2012,09,13,14,41,24.30
2012,09,13,14,42,24.30
2012,09,13,14,43,24.30
2012,09,13,14,44,24.30
2012,09,13,14,45,24.30
2012,09,13,14,46,24.30
2012,09,13,14,47,24.30
2012,09,13,14,48,24.30
2012,09,13,14,49,24.30
2012,09,13,14,50,24.30
2012,09,13,14,51,24.30
2012,09,13,14,52,24.30
2012,09,13,14,53,24.30
2012,09,13,14,54,24.20
2012,09,13,14,55,24.20
2012,09,13,14,56,24.20
2012,09,13,14,57,24.20
2012,09,13,14,58,24.20
2012,09,13,14,59,24.20
2012,09,13,15,00,24.20
2012,09,13,15,01,24.20
2012,09,13,15,02,24.20
2012,09,13,15,03,24.10
2012,09,13,15,04,24.10
2012,09,13,15,05,24.10
2012,09,13,15,06,24.10
2012,09,13,15,07,24.10
2012,09,13,15,08,24.10
2012,09,13,15,09,24.10
2012,09,13,15,10,24.10
2012,09,13,15,11,24.10
2012,09,13,15,12,24.10
2012,09,13,15,13,24.00
2012,09,13,15,14,23.90
2012,09,13,15,15,23.90
2012,09,13,15,16,23.90
2012,09,13,15,17,24.00
2012,09,13,15,18,24.10
2012,09,13,15,19,24.10
2012,09,13,15,20,24.20
2012,09,13,15,21,24.20
2012,09,13,15,22,24.30
2012,09,13,15,23,24.30
2012,09,13,15,24,24.30
2012,09,13,15,25,24.30
2012,09,13,15,26,24.30
2012,09,13,15,27,24.30
2012,09,13,15,28,24.30
2012,09,13,15,29,24.30
2012,09,13,15,30,24.30
2012,09,13,15,31,24.30
2012,09,13,15,32,24.30
2012,09,13,15,33,24.20
2012,09,13,15,34,24.20
2012,09,13,15,35,24.30
2012,09,13,15,36,24.20
2012,09,13,15,37,24.20
2012,09,13,15,38,24.20
2012,09,13,15,39,24.10
2012,09,13,15,40,24.10
2012,09,13,15,41,24.10
2012,09,13,15,42,24.10
2012,09,13,15,43,24.10
2012,09,13,15,44,24.10
2012,09,13,15,45,24.10
2012,09,13,15,46,24.10
2012,09,13,15,47,24.10
2012,09,13,15,48,24.10
2012,09,13,15,49,24.10
2012,09,13,15,50,24.20
2012,09,13,15,51,24.30
2012,09,13,15,52,24.30
2012,09,13,15,53,24.30
2012,09,13,15,54,24.20
2012,09,13,15,55,24.10
2012,09,13,15,56,24.10
2012,09,13,15,57,24.10
2012,09,13,15,58,24.10
2012,09,13,15,59,24.00
2012,09,13,16,00,23.90
2012,09,13,16,01,23.80
2012,09,13,16,02,23.80
2012,09,13,16,03,23.80
2012,09,13,16,04,23.50
2012,09,13,16,05,23.30
2012,09,13,16,06,23.00
2012,09,13,16,07,22.60
2012,09,13,16,08,22.30
2012,09,13,16,09,22.20
2012,09,13,16,10,22.10
2012,09,13,16,11,22.10
2012,09,13,16,12,22.10
2012,09,13,16,13,22.00
2012,09,13,16,14,22.00
2012,09,13,16,15,21.90
2012,09,13,16,16,21.90
2012,09,13,16,17,21.80
2012,09,13,16,18,21.60
2012,09,13,16,19,21.50
2012,09,13,16,20,21.30
2012,09,13,16,21,21.30
2012,09,13,16,22,21.30
2012,09,13,16,23,21.30
2012,09,13,16,24,21.30
2012,09,13,16,25,21.30
2012,09,13,16,26,21.20
2012,09,13,16,27,21.10
2012,09,13,16,28,21.00
2012,09,13,16,29,20.80
2012,09,13,16,30,20.80
2012,09,13,16,31,20.70
2012,09,13,16,32,20.50
2012,09,13,16,33,20.50
2012,09,13,16,34,20.30
2012,09,13,16,35,20.20
2012,09,13,16,36,20.10
2012,09,13,16,37,20.00
2012,09,13,16,38,19.90
2012,09,13,16,39,19.80
2012,09,13,16,40,19.80
2012,09,13,16,41,19.70
2012,09,13,16,42,19.60
2012,09,13,16,43,19.60
2012,09,13,16,44,19.60
2012,09,13,16,45,19.60
2012,09,13,16,46,19.70
2012,09,13,16,47,19.60
2012,09,13,16,48,19.60
2012,09,13,16,49,19.50
2012,09,13,16,50,19.50
2012,09,13,16,51,19.40
2012,09,13,16,52,19.40
2012,09,13,16,53,19.40
2012,09,13,16,54,19.30
2012,09,13,16,55,19.10
2012,09,13,16,56,19.10
2012,09,13,16,57,18.90
2012,09,13,16,58,18.90
2012,09,13,16,59,18.90
2012,09,13,17,00,19.10
2012,09,13,17,01,19.10
2012,09,13,17,02,19.10
2012,09,13,17,03,19.30
2012,09,13,17,04,19.40
2012,09,13,17,05,19.40
2012,09,13,17,06,19.40
2012,09,13,17,07,19.40
2012,09,13,17,08,19.40
2012,09,13,17,09,19.50
2012,09,13,17,10,19.50
2012,09,13,17,11,19.60
2012,09,13,17,12,19.60
2012,09,13,17,13,19.60
2012,09,13,17,14,19.60
2012,09,13,17,15,19.50
2012,09,13,17,16,19.50
2012,09,13,17,17,19.50
2012,09,13,17,18,19.50
2012,09,13,17,19,19.50
2012,09,13,17,20,19.40
2012,09,13,17,21,19.40
2012,09,13,17,22,19.40
2012,09,13,17,23,19.40
2012,09,13,17,24,19.40
2012,09,13,17,25,19.50
2012,09,13,17,26,19.50
2012,09,13,17,27,19.60
2012,09,13,17,28,19.70
2012,09,13,17,29,19.70
2012,09,13,17,30,19.80
2012,09,13,17,31,19.80
2012,09,13,17,32,19.90
2012,09,13,17,33,20.00